Location: Casaglia
(44.0333°N, 11.5167°E)
Time: 20:09:30
(UTC+00:00)

STARLINK-1368 - Pass Details

Date: 07 June 2020
Orbit: 548 x 551 km, 53.0° (Epoch: 11 July)

Event Time Altitude Azimuth Distance (km) Brightness Sun altitude
Rises 02:26:03 0° 305° (NW) 2,721 7.1 -9.9°
Reaches altitude 10° 02:28:20 10° 310° (NW) 1,825 6.2 -9.6°
Maximum altitude 02:32:24 54° 28° (NNE) 672 4.5 -9.1°
Drops below altitude 10° 02:36:27 10° 107° (ESE) 1,819 6.7 -8.6°
Sets 02:38:44 0° 112° (ESE) 2,710 7.5 -8.3°
